Wind_Speed
17 17 16 15 14 13 12 11 11 9 8 7 7 8 9 10 10 8 7 5 5 4 7 13 14 13 12 10 7 5 4 3 3 5 6 7 9 10 9 9 7 7 7 8 9 10 12
19 18 18 17 17 16 15 15 13 11 9 10 9 9 11 11 11 9 8 7 4 3 6 14 15 14 13 12 10 9 9 8 7 6 7 9 10 11 11 10 9 8 9 9 10 12 13
21 21 20 19 19 19 18 17 15 12 12 12 9 10 10 10 10 9 8 9 8 6 5 14 18 17 16 16 16 15 13 12 11 10 9 10 11 12 13 13 13 11 11 13 13 15 14
21 22 23 23 23 23 22 19 16 14 14 12 12 10 10 10 11 12 12 10 10 11 11 11 18 21 21 20 19 18 16 16 15 14 13 13 14 14 15 15 15 14 13 14 14 16 16
22 22 23 24 24 24 23 21 18 17 15 14 13 11 13 13 13 12 12 12 12 14 16 16 17 21 23 24 24 22 21 20 19 19 18 17 16 17 17 18 18 17 16 15 14 16 18
25 26 24 24 25 25 24 23 21 20 18 16 15 14 14 13 12 13 13 14 16 18 18 20 21 20 23 25 26 25 25 24 24 24 22 21 20 20 20 21 21 20 20 19 18 16 20
23 26 26 27 26 25 24 23 25 23 22 19 17 16 15 13 13 14 15 15 16 18 18 19 21 22 23 23 23 25 27 28 28 28 27 25 23 22 22 23 23 24 24 23 24 22 24
14 18 24 25 25 25 26 25 25 25 22 20 19 17 15 14 14 13 14 15 15 15 16 14 15 19 23 25 25 25 26 26 27 28 28 26 24 24 25 24 23 24 24 25 27 26 30
18 16 15 19 21 24 24 23 21 20 19 18 17 16 16 15 15 14 13 13 12 12 12 11 12 13 15 18 20 21 23 24 25 25 25 24 26 25 24 24 25 24 23 26 29 31 34
24 21 19 17 17 17 19 21 21 19 19 18 17 17 16 16 15 13 11 11 11 12 12 11 10 10 9 11 14 16 18 20 21 23 23 23 24 23 23 23 23 22 25 28 33 38 41
29 28 24 22 20 18 16 16 17 19 19 19 18 17 17 15 13 12 11 10 11 12 11 12 11 11 11 12 13 14 15 17 17 19 20 20 21 21 21 23 26 28 31 34 37 40 46
35 32 30 27 25 23 20 18 17 17 16 16 16 15 14 13 11 11 12 12 13 14 13 12 13 13 14 14 15 15 15 16 17 18 20 20 22 24 25 27 29 32 34 37 40 42 44
38 39 35 32 30 27 25 23 22 21 20 19 17 17 16 15 14 13 13 14 15 15 16 15 14 15 16 16 17 17 18 19 21 23 25 27 27 28 30 31 33 36 39 41 43 45 48
42 45 41 37 34 33 30 28 27 27 25 24 22 21 20 19 18 17 17 17 17 17 16 17 17 16 16 17 17 19 21 21 25 27 29 31 31 31 32 33 35 37 40 42 47 49 52
48 49 45 40 38 36 35 33 30 30 29 29 27 26 24 23 22 21 21 21 19 20 20 20 19 18 18 20 22 23 25 25 26 30 33 34 35 32 30 33 38 42 44 46 50 52 57
51 52 48 47 42 41 40 38 36 34 31 31 30 28 28 27 27 27 27 26 26 25 24 24 23 22 20 20 24 24 26 27 31 32 33 34 35 33 36 38 42 45 48 50 53 56 59
50 50 49 49 47 49 46 45 41 39 39 37 34 32 31 30 28 27 27 28 29 30 29 26 24 24 24 25 28 31 33 34 34 33 34 35 36 38 40 43 46 49 51 52 52 54 56
67 59 49 50 49 49 48 45 43 42 41 41 40 39 36 34 33 32 29 30 31 31 33 35 34 34 33 34 38 37 36 34 37 38 38 39 41 40 42 47 50 53 53 52 52 51 53
71 70 61 47 53 46 47 45 44 45 44 44 44 43 42 41 38 35 33 35 36 34 36 37 38 37 38 38 38 37 38 39 41 40 40 39 42 43 48 51 55 56 55 52 49 53 56
59 62 59 62 53 49 41 49 46 47 50 51 51 49 47 45 45 43 41 41 39 38 38 38 39 37 37 40 42 44 41 40 40 41 42 43 46 47 49 53 55 55 54 48 52 54 55
61 58 55 53 60 67 53 45 52 52 55 56 56 55 51 50 51 49 48 44 42 41 40 40 39 39 42 43 44 44 46 44 44 45 46 48 49 48 52 55 53 52 53 49 55 57 60
64 62 57 55 56 55 62 49 51 51 52 57 56 56 57 52 54 55 51 46 45 45 43 40 40 43 44 44 44 46 46 46 47 48 51 53 51 51 56 54 52 55 53 56 57 60 59
60 64 61 61 56 51 52 58 61 58 56 55 54 54 55 55 54 57 54 49 46 46 47 46 45 46 47 48 46 46 47 48 49 50 49 50 51 55 59 55 56 59 58 57 56 57 56
57 58 58 62 62 57 53 51 60 59 56 52 56 57 59 59 57 56 53 51 51 52 52 53 50 50 48 48 48 46 48 50 52 50 50 52 53 56 56 57 60 60 58 59 58 58 56
57 54 54 54 61 63 61 55 50 61 62 62 59 58 55 57 58 58 56 56 56 56 55 55 55 51 48 50 50 50 49 51 49 50 52 51 53 55 59 59 60 60 57 56 57 56 56
50 51 50 50 50 54 57 60 57 54 61 65 70 70 69 69 65 59 58 58 60 59 59 61 60 58 54 52 51 52 51 50 51 54 55 52 52 56 57 55 60 58 55 56 57 56 56
44 46 47 45 45 47 48 52 55 54 55 61 63 72 69 70 66 67 64 59 62 60 60 57 53 53 52 49 49 51 51 53 54 55 53 54 55 53 57 61 62 57 55 55 55 56 55
37 39 40 39 39 42 43 48 52 54 57 58 60 68 66 65 69 68 62 54 57 53 56 56 54 55 49 49 50 51 53 55 55 53 50 52 55 58 62 61 57 55 55 54 54 55 55
34 33 32 32 30 31 35 42 48 49 53 56 58 60 53 62 64 63 61 65 57 59 60 55 53 54 48 48 49 52 55 56 50 50 53 54 54 55 56 57 56 55 53 54 54 54 56
Wind_Direction
222 223 224 227 228 238 253 259 261 259 270 269 262 266 274 280 281 281 284 309 332 341 191 182 181 189 193 201 213 239 246 253 302 347 344 339 348 348 351 340 329 318 309 290 278 274 277
229 229 227 228 234 241 251 259 259 261 263 265 267 273 270 272 278 274 262 269 294 303 211 205 203 208 213 220 234 252 261 270 284 309 325 334 335 339 343 340 330 312 301 299 299 294 289
230 230 232 233 240 246 248 253 258 260 264 267 271 267 263 262 271 280 266 252 262 275 251 221 221 223 227 234 246 254 264 269 277 294 304 314 321 325 332 333 332 323 300 292 294 291 289
237 238 236 237 241 244 248 249 254 254 260 266 264 262 257 254 260 270 271 259 248 261 263 246 231 231 237 241 249 256 263 266 273 281 289 298 307 316 319 320 321 317 310 304 297 293 290
234 240 244 245 244 245 247 250 247 247 255 261 263 261 260 259 264 270 271 264 259 262 266 257 248 240 242 247 251 259 265 269 272 276 279 287 297 302 305 308 310 310 303 301 298 293 292
238 238 239 245 250 253 253 251 248 248 254 258 257 262 261 265 272 275 269 267 266 266 263 253 248 247 247 252 256 261 265 267 270 270 273 278 285 290 295 299 300 300 296 296 294 295 297
246 241 241 242 245 250 251 251 255 258 260 257 259 265 266 269 272 273 273 269 271 269 265 255 251 250 252 256 259 262 262 263 264 266 271 276 281 287 290 293 295 300 298 297 295 298 296
240 247 243 242 243 246 250 252 255 256 257 257 261 260 262 266 267 268 269 274 275 276 276 272 266 261 258 257 258 258 261 264 267 270 273 277 282 284 286 288 290 294 292 295 294 296 298
241 245 248 242 240 245 246 248 249 250 251 254 253 254 259 261 263 266 272 276 279 280 280 281 285 281 272 265 266 268 267 268 271 275 277 280 281 284 289 292 294 293 295 293 294 295 295
245 241 241 246 242 238 246 246 245 246 247 247 249 252 255 258 262 262 260 268 279 291 293 295 292 295 285 274 271 274 275 276 279 280 284 287 289 292 293 291 290 290 288 290 292 296 298
249 244 238 240 239 238 232 238 246 246 246 246 245 247 248 248 251 257 263 268 275 283 288 292 286 288 286 292 289 285 285 286 287 289 292 293 294 292 290 289 291 296 296 297 296 297 298
251 252 245 235 239 237 236 235 234 235 236 237 238 237 239 242 243 253 265 270 278 283 286 288 286 282 287 286 288 292 294 295 296 295 294 292 292 291 291 293 295 296 297 297 297 296 298
247 248 245 242 237 237 238 236 236 239 238 237 235 234 236 239 243 248 256 268 275 278 284 280 277 280 281 284 288 290 292 292 292 293 294 294 295 295 295 296 296 296 296 294 295 296 297
243 241 241 241 240 238 238 239 240 238 238 238 239 239 240 243 244 247 251 260 269 276 276 277 274 274 276 281 286 290 291 295 298 298 297 295 292 292 296 295 296 295 294 296 297 301 301
234 242 237 239 242 240 240 238 237 239 240 240 241 241 243 245 249 251 255 260 267 274 279 281 282 278 281 286 291 294 295 297 295 297 297 297 293 293 294 297 298 298 300 301 301 302 303
234 234 235 236 239 241 242 242 240 239 239 242 242 242 245 246 247 251 253 255 262 268 275 276 278 280 282 291 294 298 300 300 295 296 296 295 294 294 299 305 302 302 302 303 304 303 305
240 230 230 234 233 230 236 244 243 245 244 245 246 246 244 245 249 254 256 260 261 266 270 273 274 276 282 290 296 300 303 299 298 295 296 296 294 295 298 304 305 304 303 303 302 304 304
245 241 237 231 232 232 241 243 249 248 247 248 248 246 244 247 252 257 258 262 263 264 266 268 270 275 281 288 293 294 296 298 297 296 296 293 294 295 297 302 304 305 303 303 305 306 304
249 252 240 243 235 240 239 235 241 249 247 249 251 249 244 248 252 254 258 265 266 266 269 271 272 275 280 285 288 293 295 293 292 292 293 292 291 294 298 301 304 304 303 304 305 307 311
252 257 259 247 235 242 246 242 246 251 253 253 254 254 249 249 253 254 259 265 264 265 267 271 273 275 276 281 286 289 290 288 285 284 285 286 288 290 295 298 301 302 302 302 304 307 303
243 249 253 260 251 239 245 250 249 252 252 251 254 255 253 252 252 254 259 258 262 262 264 268 271 274 279 284 286 287 287 282 281 280 282 285 287 290 295 298 299 300 300 303 305 303 301
249 250 247 249 256 257 239 247 248 246 244 247 250 254 257 253 249 253 255 261 262 261 265 267 271 276 278 281 283 283 280 279 277 280 285 289 291 292 295 297 298 297 302 301 301 300 301
250 252 253 250 248 253 258 253 243 241 251 256 248 250 254 254 250 253 257 260 260 260 264 268 270 275 278 278 277 278 279 279 282 284 288 289 292 294 296 295 296 299 301 306 303 301 300
238 249 251 254 252 250 251 252 256 253 256 252 237 237 244 250 253 256 255 257 260 262 263 267 271 272 272 272 273 274 277 280 284 285 288 291 293 295 294 295 297 299 306 304 301 301 301
236 236 244 250 254 255 254 257 249 256 251 251 242 239 243 248 251 253 256 258 261 262 262 265 268 266 266 268 273 277 279 281 283 285 290 290 293 293 292 295 296 301 304 301 299 301 302
236 237 237 241 245 252 256 259 260 253 252 250 247 244 246 254 258 253 253 256 257 259 260 264 263 260 261 268 274 277 280 282 283 286 289 291 290 287 291 297 301 304 303 299 300 301 300
237 240 237 238 239 245 253 258 260 257 253 252 256 253 251 247 249 248 249 246 254 255 258 258 259 262 267 271 274 276 279 281 283 287 290 291 291 292 297 299 301 301 298 299 299 302 302
235 237 238 237 240 241 245 251 255 257 256 254 250 257 254 241 239 244 243 242 249 253 255 258 261 262 266 269 274 278 279 282 285 288 291 293 292 294 295 297 296 298 297 298 299 300 303
231 231 235 234 232 238 239 241 249 251 249 250 249 251 237 236 235 238 235 236 244 252 255 261 264 268 273 275 279 280 281 283 285 289 293 293 293 295 295 293 295 296 297 297 298 300 303
Height
5824 5825 5827 5828 5829 5830 5831 5831 5831 5831 5831 5831 5831 5831 5831 5831 5831 5832 5832 5831 5830 5829 5829 5831 5833 5835 5836 5838 5839 5838 5839 5839 5838 5838 5837 5837 5836 5835 5834 5833 5831 5831 5831 5830 5830 5830 5829
5823 5824 5825 5826 5827 5827 5828 5829 5829 5829 5828 5828 5828 5829 5829 5829 5829 5830 5830 5830 5830 5829 5829 5830 5832 5833 5835 5837 5836 5836 5837 5837 5837 5836 5835 5835 5834 5833 5832 5832 5831 5830 5829 5829 5829 5829 5828
5820 5821 5822 5823 5823 5824 5825 5826 5827 5827 5826 5826 5827 5827 5827 5827 5827 5827 5828 5828 5828 5827 5827 5828 5829 5831 5832 5834 5833 5834 5835 5835 5834 5834 5834 5833 5832 5832 5831 5830 5829 5828 5827 5827 5827 5827 5827
5816 5817 5818 5819 5820 5821 5822 5822 5823 5823 5824 5824 5824 5825 5825 5825 5825 5824 5824 5824 5825 5825 5825 5825 5826 5827 5828 5829 5830 5831 5832 5832 5832 5831 5831 5830 5830 5829 5828 5827 5826 5826 5825 5824 5824 5824 5823
5811 5813 5815 5816 5817 5818 5818 5819 5819 5820 5820 5821 5821 5822 5822 5822 5822 5821 5821 5821 5821 5821 5821 5821 5822 5823 5825 5825 5826 5827 5828 5828 5829 5828 5827 5827 5827 5826 5825 5824 5823 5822 5821 5820 5821 5820 5819
5806 5807 5809 5811 5813 5814 5815 5816 5816 5816 5817 5817 5817 5818 5818 5818 5818 5818 5818 5818 5818 5818 5817 5817 5818 5820 5820 5820 5821 5822 5823 5824 5824 5823 5823 5823 5822 5821 5821 5819 5818 5818 5816 5814 5814 5816 5814
5801 5802 5803 5805 5807 5809 5811 5812 5813 5813 5814 5814 5813 5813 5814 5814 5814 5814 5814 5814 5815 5815 5812 5813 5813 5814 5814 5816 5816 5817 5817 5817 5818 5818 5818 5818 5818 5817 5816 5815 5813 5812 5811 5810 5809 5810 5809
5797 5798 5798 5799 5802 5803 5805 5807 5808 5809 5809 5810 5810 5810 5810 5810 5810 5811 5811 5810 5810 5810 5809 5807 5808 5809 5810 5810 5811 5811 5813 5814 5813 5813 5813 5814 5814 5812 5811 5810 5809 5808 5807 5805 5804 5804 5802
5792 5793 5794 5795 5796 5798 5799 5801 5803 5804 5805 5805 5805 5806 5806 5807 5807 5807 5807 5806 5806 5806 5806 5806 5806 5806 5806 5807 5807 5808 5809 5808 5809 5809 5809 5809 5808 5807 5807 5806 5805 5804 5803 5800 5799 5798 5796
5789 5789 5789 5791 5791 5792 5794 5796 5798 5799 5800 5800 5801 5802 5802 5803 5805 5804 5803 5803 5802 5803 5804 5805 5804 5803 5803 5803 5804 5804 5804 5806 5805 5804 5804 5804 5803 5803 5802 5800 5799 5799 5796 5795 5792 5789 5787
5785 5785 5785 5786 5787 5788 5789 5791 5792 5793 5795 5796 5797 5798 5799 5799 5800 5800 5800 5799 5799 5800 5801 5802 5801 5801 5801 5802 5802 5801 5801 5801 5801 5800 5800 5800 5798 5797 5796 5795 5794 5794 5791 5788 5785 5782 5778
5778 5780 5781 5780 5782 5783 5784 5785 5787 5788 5790 5791 5792 5793 5794 5795 5796 5796 5797 5797 5797 5799 5797 5798 5798 5798 5798 5797 5797 5797 5797 5797 5796 5795 5794 5793 5792 5792 5791 5789 5786 5784 5782 5780 5776 5773 5769
5768 5771 5774 5774 5775 5777 5778 5779 5781 5783 5784 5786 5786 5787 5789 5790 5791 5791 5792 5793 5794 5793 5794 5795 5794 5794 5793 5793 5793 5793 5792 5791 5791 5790 5789 5787 5787 5786 5784 5782 5779 5777 5774 5770 5765 5761 5758
5757 5760 5764 5767 5768 5769 5770 5772 5774 5776 5778 5779 5781 5782 5783 5785 5786 5787 5787 5788 5789 5789 5789 5789 5789 5789 5789 5788 5788 5788 5787 5787 5785 5784 5782 5780 5781 5779 5777 5774 5772 5769 5765 5763 5754 5751 5747
5746 5750 5753 5756 5760 5762 5762 5764 5766 5769 5771 5772 5774 5775 5776 5778 5779 5781 5782 5783 5784 5783 5785 5784 5784 5784 5784 5783 5783 5782 5781 5782 5780 5777 5775 5771 5769 5770 5768 5766 5763 5758 5755 5751 5744 5740 5733
5734 5738 5742 5746 5748 5751 5753 5755 5757 5759 5762 5764 5765 5767 5769 5770 5771 5773 5774 5776 5777 5777 5777 5778 5778 5778 5778 5779 5776 5775 5775 5775 5772 5770 5767 5765 5761 5761 5759 5757 5753 5747 5743 5738 5733 5724 5718
5719 5724 5728 5734 5736 5738 5742 5745 5748 5750 5753 5755 5757 5759 5761 5762 5764 5765 5767 5768 5769 5769 5770 5771 5771 5770 5770 5770 5769 5768 5768 5766 5764 5761 5758 5756 5754 5753 5749 5746 5740 5735 5730 5725 5719 5712 5705
5705 5710 5715 5720 5726 5727 5731 5734 5737 5740 5742 5745 5746 5749 5752 5753 5756 5757 5759 5761 5761 5760 5761 5762 5762 5762 5762 5761 5760 5758 5758 5757 5754 5752 5749 5746 5742 5741 5737 5733 5728 5722 5717 5711 5704 5700 5692
5688 5694 5700 5707 5712 5716 5721 5723 5725 5728 5731 5734 5735 5739 5741 5743 5745 5747 5750 5751 5751 5753 5753 5753 5753 5753 5753 5751 5750 5750 5749 5747 5744 5741 5738 5736 5731 5729 5724 5722 5715 5708 5702 5696 5691 5685 5683
5675 5678 5684 5690 5696 5703 5706 5709 5712 5716 5720 5723 5725 5727 5731 5734 5736 5737 5740 5740 5742 5743 5743 5743 5744 5743 5742 5741 5740 5737 5736 5735 5731 5729 5726 5723 5720 5718 5714 5708 5702 5696 5689 5686 5679 5674 5667
5662 5667 5671 5674 5679 5686 5693 5697 5701 5703 5708 5710 5713 5714 5719 5723 5725 5727 5728 5730 5731 5732 5732 5733 5733 5732 5731 5731 5729 5727 5724 5721 5719 5717 5713 5709 5707 5704 5700 5695 5689 5684 5678 5675 5667 5662 5653
5644 5650 5658 5665 5669 5672 5678 5684 5688 5693 5697 5699 5702 5703 5705 5711 5714 5714 5716 5720 5721 5721 5722 5721 5722 5721 5719 5717 5716 5714 5713 5710 5707 5704 5700 5697 5694 5691 5688 5682 5677 5670 5668 5662 5656 5648 5640
5626 5632 5639 5648 5654 5659 5663 5666 5671 5679 5687 5689 5689 5691 5693 5697 5702 5704 5706 5708 5708 5709 5711 5711 5709 5709 5708 5706 5703 5701 5699 5697 5695 5692 5689 5685 5681 5678 5674 5669 5663 5658 5654 5649 5643 5635 5627
5611 5616 5622 5630 5637 5641 5650 5655 5658 5665 5672 5677 5680 5680 5681 5683 5687 5691 5694 5695 5695 5697 5698 5698 5697 5696 5695 5693 5691 5688 5686 5684 5682 5679 5675 5673 5669 5664 5660 5655 5649 5644 5641 5635 5627 5621 5614
5596 5601 5606 5611 5619 5625 5630 5638 5646 5650 5657 5664 5668 5668 5670 5673 5676 5679 5681 5681 5682 5683 5684 5684 5684 5682 5681 5680 5678 5675 5674 5672 5670 5666 5662 5659 5655 5649 5644 5641 5637 5632 5629 5623 5614 5608 5600
5582 5587 5591 5595 5600 5607 5613 5619 5626 5632 5638 5645 5651 5655 5656 5660 5665 5666 5667 5668 5668 5669 5670 5670 5669 5666 5665 5664 5664 5661 5660 5659 5657 5653 5650 5645 5640 5637 5631 5626 5620 5620 5614 5605 5598 5595 5586
5570 5574 5578 5582 5586 5591 5596 5603 5610 5616 5620 5625 5634 5637 5641 5643 5648 5650 5653 5653 5654 5655 5655 5656 5654 5653 5651 5651 5649 5648 5646 5644 5642 5639 5637 5631 5625 5621 5615 5609 5607 5604 5597 5591 5586 5583 5574
5560 5564 5568 5571 5574 5578 5582 5589 5594 5600 5605 5609 5616 5621 5626 5625 5627 5633 5638 5638 5640 5641 5640 5642 5640 5640 5638 5636 5634 5633 5631 5629 5627 5625 5622 5617 5612 5610 5602 5595 5593 5590 5584 5578 5573 5566 5559
5552 5556 5559 5562 5565 5569 5572 5576 5581 5587 5591 5595 5599 5605 5608 5611 5617 5617 5619 5621 5624 5623 5625 5626 5625 5624 5622 5621 5620 5618 5617 5614 5613 5610 5608 5604 5599 5596 5591 5584 5579 5574 5569 5563 5558 5553 5545